Orbital Elements at Epoch 2459200.5 (2020-Dec-17.0) TDB
Reference: JPL 14 (heliocentric ecliptic J2000)
Element | Value | Uncertainty (1-sigma) | Units |
e | .09757172845251512 | 5.3978e-08 | |
a | 2.32219905877029 | 1.0737e-08 | au |
q | 2.095618082795269 | 1.3042e-07 | au |
i | 5.62079852623101 | 4.2337e-06 | deg |
node | 241.9406547568136 | 5.0173e-05 | deg |
peri | 24.84689287448289 | 5.775e-05 | deg |
M | 5.573085824366425 | 3.2335e-05 | deg |
tp | 2459180.490288625512 (2020-Nov-26.99028863) | 0.00011604 | TDB |
period | 1292.550719983652 3.54 | 8.9646e-06 2.454e-08 | d yr |
n | .2785190510779749 | 1.9317e-09 | deg/d |
Q | 2.548780034745311 | 1.1785e-08 | au |
|
| | Orbit Determination Parameters
Additional Information
|